Location: Unspecified
(0.0000°N, 0.0000°E)
Time: 01:32:26
(UTC+00:00)

STARLINK-32315 - Visible Passes

Search period start: 04 October 2024 00:00
Search period end: 14 October 2024 00:00
Orbit: 474 x 475 km, 53.2° (Epoch: 03 October)

Date Brightness Start Highest point End Pass type
(mag) Time Alt. Az. Time Alt. Az. Time Alt. Az.
11 Oct 5.2 18:59:28 10° N 19:00:41 17° NNE 19:00:41 17° NNE visible
12 Oct 4.6 18:31:19 10° N 18:34:12 22° NE 18:35:15 19° E visible
13 Oct 6.0 19:41:11 10° W 19:43:43 17° SW 19:44:44 16° SW visible
